User: anonymous   Login
Location: Caribou
(46.8667°N, 68.0167°W)
Time: 01:58:08
(UTC-04:00)
Language:

SL-08 RB Rocket - Orbit

View from above orbital plane
View from above orbital plane
View from above satellite
View from above satellite

Ground track
Ground track

The orbit data is extracted from the following two-line orbital elements,

1 26387U 00033D   15243.24028293  .00000226  00000-0  47876-4 0  9993
2 26387 098.0567 310.0990 0025325 259.0460 145.2414 14.67954526811637
Epoch (UTC): 31 August 2015 05:46:00
Eccentricity: 0.0025325
inclination: 98.0567°
perigee height: 650 km
apogee height: 685 km
right ascension of ascending node: 310.0990°
argument of perigee: 259.0460°
revolutions per day: 14.67954526
mean anomaly at epoch: 145.2414°
orbit number at epoch: 81163

The dashed part of the orbit path shows where the satellite is in the earth's shadow,  

DLR